Kahului, HI

8:49 PM HST on March 26, 2017 (GMT -1000)
Kahului

Weather History for PHOG - August, 2013

Change the Weather History Date:

Thursday, August 1, 2013

  Actual Average Record
Temperature  
Mean Temperature 82 °F 80 °F  
Max Temperature 89 °F 88 °F 93 °F (1976)
Min Temperature 75 °F 72 °F 61 °F (1999)
Degree Days  
Heating Degree Days 0 0  
Month to date heating degree days 0 0  
Since 1 June heating degree days 0 0  
Since 1 July heating degree days 0 0  
Cooling Degree Days 17 15  
Month to date cooling degree days 17 15  
Year to date cooling degree days 2319 2101  
Since 1 June cooling degree days 935 842  
Growing Degree Days 31 (Base 50)    
Moisture  
Dew Point 73 °F    
Average Humidity 80    
Maximum Humidity 91    
Minimum Humidity 68    
Precipitation  
Precipitation 0.00 in 0.02 in 1.13 in (1982)
Month to date precipitation 0.00 0.02  
Year to date precipitation 8.12 10.22  
Snow  
Snow 0.00 in - - ()
Month to date snowfall 0.0  
Since 1 June snowfall 0.0  
Since 1 July snowfall 0.0  
Snow Depth 0.00 in    
Sea Level Pressure  
Sea Level Pressure 30.07 in    
Wind  
Wind Speed 18 mph (NE)    
Max Wind Speed 30 mph    
Max Gust Speed 38 mph    
Visibility 10 miles    
Events      
T = Trace of Precipitation, MM = Missing Value Source: NWS Daily Summary

Daily Weather History Graph

Daily Weather History Graph

Search for Another Location

Airport or City:

Trip Planner

Search our weather history database for the weather conditions in past years. The results will help you decide how hot, cold, wet, or windy it might be!

Date:

Astronomy

Aug. 01, 2013 Rise Set
Actual Time 5:59 AM HST 7:03 PM HST
Civil Twilight 5:36 AM HST 7:27 PM HST
Nautical Twilight 5:08 AM HST 7:55 PM HST
Astronomical Twilight 4:39 AM HST 8:23 PM HST
Moon 1:48 AM HST (8/1) 3:16 PM HST (8/1)
Length of Visible Light 13h 51m
Length of Day
13h 03m
Waning Crescent, 21% of the Moon is Illuminated
Aug 1
Waning Crescent
Aug 6
New
Aug 14
First Quarter
Aug 20
Full
Aug 27
Last Quarter

Hourly Weather History & Observations

Time (HST) Temp. Heat Index Dew Point Humidity Pressure Visibility Wind Dir Wind Speed Gust Speed Precip Events Conditions
12:54 AM 78.1 °F - 70.0 °F 76% 30.11 in 10.0 mi ENE 12.7 mph 23.0 mph N/A   Clear
1:54 AM 77.0 °F - 69.1 °F 76% 30.09 in 10.0 mi ENE 12.7 mph 19.6 mph N/A   Clear
2:54 AM 75.9 °F - 71.1 °F 85% 30.08 in 10.0 mi NE 17.3 mph 23.0 mph N/A   Clear
3:54 AM 75.9 °F - 70.0 °F 82% 30.08 in 10.0 mi ENE 15.0 mph 23.0 mph N/A   Clear
4:54 AM 77.0 °F - 70.0 °F 79% 30.09 in 10.0 mi NE 11.5 mph - N/A   Clear
5:54 AM 77.0 °F - 71.1 °F 82% 30.08 in 10.0 mi NNE 18.4 mph 24.2 mph N/A   Clear
6:54 AM 77.0 °F - 73.9 °F 90% 30.09 in 10.0 mi NE 19.6 mph - N/A   Partly Cloudy
7:54 AM 81.0 °F 86.2 °F 73.9 °F 79% 30.10 in 10.0 mi NE 19.6 mph 27.6 mph N/A   Scattered Clouds
8:54 AM 84.0 °F 91.2 °F 73.9 °F 72% 30.10 in 10.0 mi NE 19.6 mph 27.6 mph N/A   Scattered Clouds
9:54 AM 86.0 °F 96.0 °F 75.9 °F 72% 30.09 in 10.0 mi ENE 17.3 mph 26.5 mph N/A   Partly Cloudy
10:54 AM 87.1 °F 96.3 °F 75.0 °F 67% 30.08 in 10.0 mi NE 25.3 mph 32.2 mph N/A   Partly Cloudy
11:54 AM 87.1 °F 96.3 °F 75.0 °F 67% 30.07 in 10.0 mi NE 24.2 mph 33.4 mph N/A   Scattered Clouds
12:54 PM 87.1 °F 97.3 °F 75.9 °F 69% 30.06 in 10.0 mi ENE 20.7 mph 36.8 mph N/A   Partly Cloudy
1:54 PM 87.1 °F 97.3 °F 75.9 °F 69% 30.04 in 10.0 mi ENE 19.6 mph 32.2 mph N/A   Partly Cloudy
3:54 PM 84.9 °F 93.3 °F 75.0 °F 72% 30.01 in 10.0 mi ENE 25.3 mph 33.4 mph N/A   Scattered Clouds
4:54 PM 84.0 °F 91.2 °F 73.9 °F 72% 30.01 in 10.0 mi ENE 19.6 mph 29.9 mph N/A   Scattered Clouds
5:54 PM 82.0 °F 87.9 °F 73.9 °F 76% 30.02 in 10.0 mi NE 19.6 mph 29.9 mph N/A   Partly Cloudy
6:54 PM 78.1 °F - 75.0 °F 90% 30.04 in 10.0 mi ENE 12.7 mph 25.3 mph N/A   Scattered Clouds
7:54 PM 78.1 °F - 73.0 °F 84% 30.06 in 10.0 mi NE 18.4 mph 31.1 mph N/A   Scattered Clouds
8:54 PM 75.9 °F - 75.9 °F 100% 30.09 in 10.0 mi NE 16.1 mph - N/A   Mostly Cloudy
9:54 PM 75.9 °F - 75.9 °F 100% 30.10 in 10.0 mi NE 15.0 mph - 0.00 in   Scattered Clouds
10:54 PM 75.0 °F - 75.0 °F 100% 30.09 in 10.0 mi NE 15.0 mph - N/A   Scattered Clouds
11:54 PM 75.9 °F - 73.9 °F 94% 30.07 in 10.0 mi NE 19.6 mph - N/A   Clear